Year,Month,Day,Hour,Minute,Value (Times are PST for temperature in C)
2013,04,01,00,00,8.80
2013,04,01,00,01,8.80
2013,04,01,00,02,8.80
2013,04,01,00,03,8.80
2013,04,01,00,04,8.80
2013,04,01,00,05,8.70
2013,04,01,00,06,8.70
2013,04,01,00,07,8.70
2013,04,01,00,08,8.70
2013,04,01,00,09,8.70
2013,04,01,00,10,8.60
2013,04,01,00,11,8.60
2013,04,01,00,12,8.60
2013,04,01,00,13,8.60
2013,04,01,00,14,8.60
2013,04,01,00,15,8.60
2013,04,01,00,16,8.60
2013,04,01,00,17,8.60
2013,04,01,00,18,8.50
2013,04,01,00,19,8.50
2013,04,01,00,20,8.50
2013,04,01,00,21,8.40
2013,04,01,00,22,8.40
2013,04,01,00,23,8.40
2013,04,01,00,24,8.40
2013,04,01,00,25,8.40
2013,04,01,00,26,8.40
2013,04,01,00,27,8.30
2013,04,01,00,28,8.30
2013,04,01,00,29,8.30
2013,04,01,00,30,8.30
2013,04,01,00,31,8.30
2013,04,01,00,32,8.30
2013,04,01,00,33,8.30
2013,04,01,00,34,8.30
2013,04,01,00,35,8.20
2013,04,01,00,36,8.20
2013,04,01,00,37,8.20
2013,04,01,00,38,8.20
2013,04,01,00,39,8.20
2013,04,01,00,40,8.20
2013,04,01,00,41,8.10
2013,04,01,00,42,8.10
2013,04,01,00,43,8.10
2013,04,01,00,44,8.10
2013,04,01,00,45,8.10
2013,04,01,00,46,8.00
2013,04,01,00,47,8.00
2013,04,01,00,48,7.90
2013,04,01,00,49,7.90
2013,04,01,00,50,7.90
2013,04,01,00,51,7.90
2013,04,01,00,52,7.90
2013,04,01,00,53,7.90
2013,04,01,00,54,7.80
2013,04,01,00,55,7.80
2013,04,01,00,56,7.80
2013,04,01,00,57,7.80
2013,04,01,00,58,7.80
2013,04,01,00,59,7.70
2013,04,01,01,00,7.70
2013,04,01,01,01,7.70
2013,04,01,01,02,7.70
2013,04,01,01,03,7.60
2013,04,01,01,04,7.60
2013,04,01,01,05,7.60
2013,04,01,01,06,7.60
2013,04,01,01,07,7.50
2013,04,01,01,08,7.40
2013,04,01,01,09,7.40
2013,04,01,01,10,7.40
2013,04,01,01,11,7.40
2013,04,01,01,12,7.30
2013,04,01,01,13,7.30
2013,04,01,01,14,7.30
2013,04,01,01,15,7.30
2013,04,01,01,16,7.20
2013,04,01,01,17,7.20
2013,04,01,01,18,7.20
2013,04,01,01,19,7.10
2013,04,01,01,20,7.10
2013,04,01,01,21,7.10
2013,04,01,01,22,7.10
2013,04,01,01,23,7.00
2013,04,01,01,24,7.00
2013,04,01,01,25,7.00
2013,04,01,01,26,6.90
2013,04,01,01,27,6.90
2013,04,01,01,28,6.90
2013,04,01,01,29,6.90
2013,04,01,01,30,6.80
2013,04,01,01,31,6.80
2013,04,01,01,32,6.80
2013,04,01,01,33,6.80
2013,04,01,01,34,6.80
2013,04,01,01,35,6.70
2013,04,01,01,36,6.70
2013,04,01,01,37,6.70
2013,04,01,01,38,6.70
2013,04,01,01,39,6.70
2013,04,01,01,40,6.70
2013,04,01,01,41,6.70
2013,04,01,01,42,6.70
2013,04,01,01,43,6.70
2013,04,01,01,44,6.70
2013,04,01,01,45,6.70
2013,04,01,01,46,6.70
2013,04,01,01,47,6.70
2013,04,01,01,48,6.70
2013,04,01,01,49,6.70
2013,04,01,01,50,6.70
2013,04,01,01,51,6.60
2013,04,01,01,52,6.60
2013,04,01,01,53,6.60
2013,04,01,01,54,6.60
2013,04,01,01,55,6.60
2013,04,01,01,56,6.60
2013,04,01,01,57,6.60
2013,04,01,01,58,6.60
2013,04,01,01,59,6.50
2013,04,01,02,00,6.50
2013,04,01,02,01,6.50
2013,04,01,02,02,6.40
2013,04,01,02,03,6.40
2013,04,01,02,04,6.40
2013,04,01,02,05,6.40
2013,04,01,02,06,6.40
2013,04,01,02,07,6.40
2013,04,01,02,08,6.40
2013,04,01,02,09,6.30
2013,04,01,02,10,6.30
2013,04,01,02,11,6.30
2013,04,01,02,12,6.30
2013,04,01,02,13,6.30
2013,04,01,02,14,6.30
2013,04,01,02,15,6.30
2013,04,01,02,16,6.30
2013,04,01,02,17,6.30
2013,04,01,02,18,6.30
2013,04,01,02,19,6.30
2013,04,01,02,20,6.30
2013,04,01,02,21,6.30
2013,04,01,02,22,6.20
2013,04,01,02,23,6.20
2013,04,01,02,24,6.20
2013,04,01,02,25,6.20
2013,04,01,02,26,6.20
2013,04,01,02,27,6.20
2013,04,01,02,28,6.20
2013,04,01,02,29,6.20
2013,04,01,02,30,6.10
2013,04,01,02,31,6.10
2013,04,01,02,32,6.10
2013,04,01,02,33,6.10
2013,04,01,02,34,6.10
2013,04,01,02,35,6.10
2013,04,01,02,36,6.10
2013,04,01,02,37,6.10
2013,04,01,02,38,6.00
2013,04,01,02,39,6.00
2013,04,01,02,40,6.00
2013,04,01,02,41,6.00
2013,04,01,02,42,6.00
2013,04,01,02,43,5.90
2013,04,01,02,44,5.90
2013,04,01,02,45,5.90
2013,04,01,02,46,5.90
2013,04,01,02,47,5.90
2013,04,01,02,48,5.90
2013,04,01,02,49,5.90
2013,04,01,02,50,5.90
2013,04,01,02,51,5.80
2013,04,01,02,52,5.80
2013,04,01,02,53,5.80
2013,04,01,02,54,5.80
2013,04,01,02,55,5.80
2013,04,01,02,56,5.80
2013,04,01,02,57,5.70
2013,04,01,02,58,5.70
2013,04,01,02,59,5.70
2013,04,01,03,00,5.70
2013,04,01,03,01,5.70
2013,04,01,03,02,5.70
2013,04,01,03,03,5.70
2013,04,01,03,04,5.70
2013,04,01,03,05,5.70
2013,04,01,03,06,5.70
2013,04,01,03,07,5.70
2013,04,01,03,08,5.70
2013,04,01,03,09,5.70
2013,04,01,03,10,5.60
2013,04,01,03,11,5.70
2013,04,01,03,12,5.60
2013,04,01,03,13,5.60
2013,04,01,03,14,5.60
2013,04,01,03,15,5.60
2013,04,01,03,16,5.60
2013,04,01,03,17,5.60
2013,04,01,03,18,5.60
2013,04,01,03,19,5.60
2013,04,01,03,20,5.50
2013,04,01,03,21,5.50
2013,04,01,03,22,5.50
2013,04,01,03,23,5.50
2013,04,01,03,24,5.40
2013,04,01,03,25,5.40
2013,04,01,03,26,5.40
2013,04,01,03,27,5.40
2013,04,01,03,28,5.30
2013,04,01,03,29,5.30
2013,04,01,03,30,5.30
2013,04,01,03,31,5.30
2013,04,01,03,32,5.30
2013,04,01,03,33,5.30
2013,04,01,03,34,5.30
2013,04,01,03,35,5.30
2013,04,01,03,36,5.30
2013,04,01,03,37,5.30
2013,04,01,03,38,5.30
2013,04,01,03,39,5.30
2013,04,01,03,40,5.30
2013,04,01,03,41,5.30
2013,04,01,03,42,5.30
2013,04,01,03,43,5.20
2013,04,01,03,44,5.20
2013,04,01,03,45,5.20
2013,04,01,03,46,5.20
2013,04,01,03,47,5.20
2013,04,01,03,48,5.20
2013,04,01,03,49,5.20
2013,04,01,03,50,5.20
2013,04,01,03,51,5.10
2013,04,01,03,52,5.10
2013,04,01,03,53,5.10
2013,04,01,03,54,5.10
2013,04,01,03,55,5.00
2013,04,01,03,56,5.00
2013,04,01,03,57,5.00
2013,04,01,03,58,4.90
2013,04,01,03,59,4.90
2013,04,01,04,00,4.90
2013,04,01,04,01,4.90
2013,04,01,04,02,4.90
2013,04,01,04,03,4.90
2013,04,01,04,04,4.90
2013,04,01,04,05,4.90
2013,04,01,04,06,4.90
2013,04,01,04,07,4.90
2013,04,01,04,08,4.90
2013,04,01,04,09,4.90
2013,04,01,04,10,4.90
2013,04,01,04,11,4.90
2013,04,01,04,12,4.90
2013,04,01,04,13,4.80
2013,04,01,04,14,4.90
2013,04,01,04,15,4.80
2013,04,01,04,16,4.80
2013,04,01,04,17,4.80
2013,04,01,04,18,4.80
2013,04,01,04,19,4.80
2013,04,01,04,20,4.80
2013,04,01,04,21,4.80
2013,04,01,04,22,4.80
2013,04,01,04,23,4.70
2013,04,01,04,24,4.70
2013,04,01,04,25,4.70
2013,04,01,04,26,4.70
2013,04,01,04,27,4.70
2013,04,01,04,28,4.70
2013,04,01,04,29,4.70
2013,04,01,04,30,4.60
2013,04,01,04,31,4.60
2013,04,01,04,32,4.60
2013,04,01,04,33,4.60
2013,04,01,04,34,4.60
2013,04,01,04,35,4.50
2013,04,01,04,36,4.50
2013,04,01,04,37,4.50
2013,04,01,04,38,4.40
2013,04,01,04,39,4.40
2013,04,01,04,40,4.40
2013,04,01,04,41,4.40
2013,04,01,04,42,4.40
2013,04,01,04,43,4.40
2013,04,01,04,44,4.40
2013,04,01,04,45,4.30
2013,04,01,04,46,4.30
2013,04,01,04,47,4.30
2013,04,01,04,48,4.30
2013,04,01,04,49,4.30
2013,04,01,04,50,4.30
2013,04,01,04,51,4.30
2013,04,01,04,52,4.30
2013,04,01,04,53,4.30
2013,04,01,04,54,4.30
2013,04,01,04,55,4.30
2013,04,01,04,56,4.30
2013,04,01,04,57,4.30
2013,04,01,04,58,4.30
2013,04,01,04,59,4.30
2013,04,01,05,00,4.20
2013,04,01,05,01,4.20
2013,04,01,05,02,4.20
2013,04,01,05,03,4.20
2013,04,01,05,04,4.20
2013,04,01,05,05,4.20
2013,04,01,05,06,4.10
2013,04,01,05,07,4.10
2013,04,01,05,08,4.10
2013,04,01,05,09,4.10
2013,04,01,05,10,4.10
2013,04,01,05,11,4.10
2013,04,01,05,12,4.10
2013,04,01,05,13,4.00
2013,04,01,05,14,4.00
2013,04,01,05,15,4.00
2013,04,01,05,16,4.00
2013,04,01,05,17,4.00
2013,04,01,05,18,3.90
2013,04,01,05,19,3.90
2013,04,01,05,20,3.90
2013,04,01,05,21,3.90
2013,04,01,05,22,3.90
2013,04,01,05,23,3.90
2013,04,01,05,24,3.90
2013,04,01,05,25,3.90
2013,04,01,05,26,3.80
2013,04,01,05,27,3.80
2013,04,01,05,28,3.80
2013,04,01,05,29,3.80
2013,04,01,05,30,3.80
2013,04,01,05,31,3.80
2013,04,01,05,32,3.80
2013,04,01,05,33,3.80
2013,04,01,05,34,3.80
2013,04,01,05,35,3.80
2013,04,01,05,36,3.80
2013,04,01,05,37,3.80
2013,04,01,05,38,3.80
2013,04,01,05,39,3.80
2013,04,01,05,40,3.80
2013,04,01,05,41,3.80
2013,04,01,05,42,3.70
2013,04,01,05,43,3.70
2013,04,01,05,44,3.70
2013,04,01,05,45,3.70
2013,04,01,05,46,3.70
2013,04,01,05,47,3.70
2013,04,01,05,48,3.70
2013,04,01,05,49,3.70
2013,04,01,05,50,3.70
2013,04,01,05,51,3.70
2013,04,01,05,52,3.70
2013,04,01,05,53,3.70
2013,04,01,05,54,3.70
2013,04,01,05,55,3.60
2013,04,01,05,56,3.70
2013,04,01,05,57,3.60
2013,04,01,05,58,3.60
2013,04,01,05,59,3.60
2013,04,01,06,00,3.60
2013,04,01,06,01,3.60
2013,04,01,06,02,3.60
2013,04,01,06,03,3.60
2013,04,01,06,04,3.60
2013,04,01,06,05,3.60
2013,04,01,06,06,3.60
2013,04,01,06,07,3.60
2013,04,01,06,08,3.60
2013,04,01,06,09,3.60
2013,04,01,06,10,3.60
2013,04,01,06,11,3.60
2013,04,01,06,12,3.60
2013,04,01,06,13,3.50
2013,04,01,06,14,3.50
2013,04,01,06,15,3.50
2013,04,01,06,16,3.40
2013,04,01,06,17,3.40
2013,04,01,06,18,3.40
2013,04,01,06,19,3.40
2013,04,01,06,20,3.40
2013,04,01,06,21,3.40
2013,04,01,06,22,3.30
2013,04,01,06,23,3.30
2013,04,01,06,24,3.30
2013,04,01,06,25,3.30
2013,04,01,06,26,3.30
2013,04,01,06,27,3.30
2013,04,01,06,28,3.30
2013,04,01,06,29,3.30
2013,04,01,06,30,3.30
2013,04,01,06,31,3.30
2013,04,01,06,32,3.30
2013,04,01,06,33,3.30
2013,04,01,06,34,3.30
2013,04,01,06,35,3.30
2013,04,01,06,36,3.30
2013,04,01,06,37,3.30
2013,04,01,06,38,3.20
2013,04,01,06,39,3.20
2013,04,01,06,40,3.20
2013,04,01,06,41,3.20
2013,04,01,06,42,3.20
2013,04,01,06,43,3.20
2013,04,01,06,44,3.20
2013,04,01,06,45,3.30
2013,04,01,06,46,3.30
2013,04,01,06,47,3.30
2013,04,01,06,48,3.30
2013,04,01,06,49,3.30
2013,04,01,06,50,3.30
2013,04,01,06,51,3.30
2013,04,01,06,52,3.40
2013,04,01,06,53,3.40
2013,04,01,06,54,3.40
2013,04,01,06,55,3.40
2013,04,01,06,56,3.40
2013,04,01,06,57,3.40
2013,04,01,06,58,3.40
2013,04,01,06,59,3.40
2013,04,01,07,00,3.40
2013,04,01,07,01,3.40
2013,04,01,07,02,3.50
2013,04,01,07,03,3.50
2013,04,01,07,04,3.50
2013,04,01,07,05,3.50
2013,04,01,07,06,3.60
2013,04,01,07,07,3.60
2013,04,01,07,08,3.60
2013,04,01,07,09,3.60
2013,04,01,07,10,3.60
2013,04,01,07,11,3.60
2013,04,01,07,12,3.70
2013,04,01,07,13,3.70
2013,04,01,07,14,3.70
2013,04,01,07,15,3.70
2013,04,01,07,16,3.80
2013,04,01,07,17,3.80
2013,04,01,07,18,3.80
2013,04,01,07,19,3.80
2013,04,01,07,20,3.80
2013,04,01,07,21,3.80
2013,04,01,07,22,3.90
2013,04,01,07,23,3.90
2013,04,01,07,24,3.90
2013,04,01,07,25,3.90
2013,04,01,07,26,3.90
2013,04,01,07,27,3.90
2013,04,01,07,28,3.90
2013,04,01,07,29,4.00
2013,04,01,07,30,4.00
2013,04,01,07,31,4.00
2013,04,01,07,32,4.00
2013,04,01,07,33,4.10
2013,04,01,07,34,4.10
2013,04,01,07,35,4.10
2013,04,01,07,36,4.10
2013,04,01,07,37,4.10
2013,04,01,07,38,4.10
2013,04,01,07,39,4.20
2013,04,01,07,40,4.20
2013,04,01,07,41,4.20
2013,04,01,07,42,4.20
2013,04,01,07,43,4.30
2013,04,01,07,44,4.30
2013,04,01,07,45,4.30
2013,04,01,07,46,4.30
2013,04,01,07,47,4.40
2013,04,01,07,48,4.40
2013,04,01,07,49,4.40
2013,04,01,07,50,4.40
2013,04,01,07,51,4.40
2013,04,01,07,52,4.50
2013,04,01,07,53,4.50
2013,04,01,07,54,4.50
2013,04,01,07,55,4.50
2013,04,01,07,56,4.50
2013,04,01,07,57,4.50
2013,04,01,07,58,4.50
2013,04,01,07,59,4.50
2013,04,01,08,00,4.50
2013,04,01,08,01,4.50
2013,04,01,08,02,4.50
2013,04,01,08,03,4.50
2013,04,01,08,04,4.50
2013,04,01,08,05,4.50
2013,04,01,08,06,4.50
2013,04,01,08,07,4.50
2013,04,01,08,08,4.50
2013,04,01,08,09,4.60
2013,04,01,08,10,4.60
2013,04,01,08,11,4.60
2013,04,01,08,12,4.60
2013,04,01,08,13,4.60
2013,04,01,08,14,4.60
2013,04,01,08,15,4.60
2013,04,01,08,16,4.70
2013,04,01,08,17,4.70
2013,04,01,08,18,4.70
2013,04,01,08,19,4.70
2013,04,01,08,20,4.80
2013,04,01,08,21,4.80
2013,04,01,08,22,4.80
2013,04,01,08,23,4.80
2013,04,01,08,24,4.80
2013,04,01,08,25,4.80
2013,04,01,08,26,4.80
2013,04,01,08,27,4.80
2013,04,01,08,28,4.90
2013,04,01,08,29,4.90
2013,04,01,08,30,4.90
2013,04,01,08,31,4.90
2013,04,01,08,32,5.00
2013,04,01,08,33,5.00
2013,04,01,08,34,5.10
2013,04,01,08,35,5.10
2013,04,01,08,36,5.10
2013,04,01,08,37,5.10
2013,04,01,08,38,5.20
2013,04,01,08,39,5.20
2013,04,01,08,40,5.20
2013,04,01,08,41,5.20
2013,04,01,08,42,5.20
2013,04,01,08,43,5.30
2013,04,01,08,44,5.30
2013,04,01,08,45,5.30
2013,04,01,08,46,5.40
2013,04,01,08,47,5.40
2013,04,01,08,48,5.40
2013,04,01,08,49,5.40
2013,04,01,08,50,5.50
2013,04,01,08,51,5.50
2013,04,01,08,52,5.60
2013,04,01,08,53,5.60
2013,04,01,08,54,5.60
2013,04,01,08,55,5.70
2013,04,01,08,56,5.70
2013,04,01,08,57,5.70
2013,04,01,08,58,5.70
2013,04,01,08,59,5.80
2013,04,01,09,00,5.80
2013,04,01,09,01,5.80
2013,04,01,09,02,5.80
2013,04,01,09,03,5.80
2013,04,01,09,04,5.90
2013,04,01,09,05,5.90
2013,04,01,09,06,5.90
2013,04,01,09,07,5.90
2013,04,01,09,08,6.00
2013,04,01,09,09,6.00
2013,04,01,09,10,6.10
2013,04,01,09,11,6.10
2013,04,01,09,12,6.10
2013,04,01,09,13,6.10
2013,04,01,09,14,6.20
2013,04,01,09,15,6.20
2013,04,01,09,16,6.20
2013,04,01,09,17,6.20
2013,04,01,09,18,6.30
2013,04,01,09,19,6.30
2013,04,01,09,20,6.30
2013,04,01,09,21,6.40
2013,04,01,09,22,6.40
2013,04,01,09,23,6.40
2013,04,01,09,24,6.40
2013,04,01,09,25,6.50
2013,04,01,09,26,6.60
2013,04,01,09,27,6.60
2013,04,01,09,28,6.60
2013,04,01,09,29,6.70
2013,04,01,09,30,6.70
2013,04,01,09,31,6.80
2013,04,01,09,32,6.80
2013,04,01,09,33,6.90
2013,04,01,09,34,6.90
2013,04,01,09,35,7.00
2013,04,01,09,36,7.10
2013,04,01,09,37,7.10
2013,04,01,09,38,7.10
2013,04,01,09,39,7.20
2013,04,01,09,40,7.20
2013,04,01,09,41,7.30
2013,04,01,09,42,7.30
2013,04,01,09,43,7.30
2013,04,01,09,44,7.30
2013,04,01,09,45,7.40
2013,04,01,09,46,7.50
2013,04,01,09,47,7.60
2013,04,01,09,48,7.60
2013,04,01,09,49,7.70
2013,04,01,09,50,7.80
2013,04,01,09,51,7.80
2013,04,01,09,52,7.90
2013,04,01,09,53,7.90
2013,04,01,09,54,8.00
2013,04,01,09,55,8.10
2013,04,01,09,56,8.10
2013,04,01,09,57,8.20
2013,04,01,09,58,8.30
2013,04,01,09,59,8.30
2013,04,01,10,00,8.40
2013,04,01,10,01,8.50
2013,04,01,10,02,8.60
2013,04,01,10,03,8.70
2013,04,01,10,04,8.80
2013,04,01,10,05,8.90
2013,04,01,10,06,9.00
2013,04,01,10,07,9.00
2013,04,01,10,08,9.00
2013,04,01,10,09,9.00
2013,04,01,10,10,9.00
2013,04,01,10,11,9.30
2013,04,01,10,12,9.40
2013,04,01,10,13,9.40
2013,04,01,10,14,9.50
2013,04,01,10,15,9.50
2013,04,01,10,16,9.60
2013,04,01,10,17,9.60
2013,04,01,10,18,9.70
2013,04,01,10,19,9.70
2013,04,01,10,20,9.80
2013,04,01,10,21,9.80
2013,04,01,10,22,9.90
2013,04,01,10,23,9.90
2013,04,01,10,24,9.90
2013,04,01,10,25,10.00
2013,04,01,10,26,10.10
2013,04,01,10,27,10.20
2013,04,01,10,28,10.20
2013,04,01,10,29,10.30
2013,04,01,10,30,10.30
2013,04,01,10,31,10.30
2013,04,01,10,32,10.30
2013,04,01,10,33,10.40
2013,04,01,10,34,10.40
2013,04,01,10,35,10.50
2013,04,01,10,36,10.60
2013,04,01,10,37,10.60
2013,04,01,10,38,10.70
2013,04,01,10,39,10.70
2013,04,01,10,40,10.80
2013,04,01,10,41,10.80
2013,04,01,10,42,10.90
2013,04,01,10,43,11.00
2013,04,01,10,44,11.10
2013,04,01,10,45,11.20
2013,04,01,10,46,11.30
2013,04,01,10,47,11.40
2013,04,01,10,48,11.40
2013,04,01,10,49,11.60
2013,04,01,10,50,11.70
2013,04,01,10,51,11.70
2013,04,01,10,52,11.70
2013,04,01,10,53,11.80
2013,04,01,10,54,11.80
2013,04,01,10,55,11.80
2013,04,01,10,56,11.80
2013,04,01,10,57,11.80
2013,04,01,10,58,11.90
2013,04,01,10,59,11.90
2013,04,01,11,00,12.00
2013,04,01,11,01,12.00
2013,04,01,11,02,12.00
2013,04,01,11,03,12.00
2013,04,01,11,04,12.10
2013,04,01,11,05,12.00
2013,04,01,11,06,11.90
2013,04,01,11,07,11.80
2013,04,01,11,08,11.50
2013,04,01,11,09,11.30
2013,04,01,11,10,11.20
2013,04,01,11,11,11.20
2013,04,01,11,12,11.20
2013,04,01,11,13,11.20
2013,04,01,11,14,11.20
2013,04,01,11,15,11.30
2013,04,01,11,16,11.30
2013,04,01,11,17,11.30
2013,04,01,11,18,11.40
2013,04,01,11,19,11.40
2013,04,01,11,20,11.40
2013,04,01,11,21,11.40
2013,04,01,11,22,11.30
2013,04,01,11,23,11.30
2013,04,01,11,24,11.20
2013,04,01,11,25,11.20
2013,04,01,11,26,11.20
2013,04,01,11,27,11.20
2013,04,01,11,28,11.20
2013,04,01,11,29,11.30
2013,04,01,11,30,11.30
2013,04,01,11,31,11.40
2013,04,01,11,32,11.40
2013,04,01,11,33,11.50
2013,04,01,11,34,11.60
2013,04,01,11,35,11.60
2013,04,01,11,36,11.60
2013,04,01,11,37,11.60
2013,04,01,11,38,11.60
2013,04,01,11,39,11.60
2013,04,01,11,40,11.60
2013,04,01,11,41,11.70
2013,04,01,11,42,11.70
2013,04,01,11,43,11.60
2013,04,01,11,44,11.50
2013,04,01,11,45,11.40
2013,04,01,11,46,11.40
2013,04,01,11,47,11.40
2013,04,01,11,48,11.40
2013,04,01,11,49,11.40
2013,04,01,11,50,11.50
2013,04,01,11,51,11.60
2013,04,01,11,52,11.60
2013,04,01,11,53,11.50
2013,04,01,11,54,11.60
2013,04,01,11,55,11.60
2013,04,01,11,56,11.60
2013,04,01,11,57,11.70
2013,04,01,11,58,11.80
2013,04,01,11,59,11.90
2013,04,01,12,00,12.00
2013,04,01,12,01,12.10
2013,04,01,12,02,12.20
2013,04,01,12,03,12.30
2013,04,01,12,04,12.40
2013,04,01,12,05,12.60
2013,04,01,12,06,12.70
2013,04,01,12,07,12.70
2013,04,01,12,08,12.70
2013,04,01,12,09,12.80
2013,04,01,12,10,12.80
2013,04,01,12,11,12.90
2013,04,01,12,12,13.00
2013,04,01,12,13,13.10
2013,04,01,12,14,13.20
2013,04,01,12,15,13.20
2013,04,01,12,16,13.30
2013,04,01,12,17,13.30
2013,04,01,12,18,13.30
2013,04,01,12,19,13.30
2013,04,01,12,20,13.30
2013,04,01,12,21,13.30
2013,04,01,12,22,13.40
2013,04,01,12,23,13.40
2013,04,01,12,24,13.40
2013,04,01,12,25,13.50
2013,04,01,12,26,13.60
2013,04,01,12,27,13.60
2013,04,01,12,28,13.60
2013,04,01,12,29,13.60
2013,04,01,12,30,13.50
2013,04,01,12,31,13.40
2013,04,01,12,32,13.40
2013,04,01,12,33,13.40
2013,04,01,12,34,13.40
2013,04,01,12,35,13.40
2013,04,01,12,36,13.40
2013,04,01,12,37,13.40
2013,04,01,12,38,13.40
2013,04,01,12,39,13.40
2013,04,01,12,40,13.40
2013,04,01,12,41,13.30
2013,04,01,12,42,13.40
2013,04,01,12,43,13.50
2013,04,01,12,44,13.70
2013,04,01,12,45,13.80
2013,04,01,12,46,13.90
2013,04,01,12,47,14.00
2013,04,01,12,48,14.20
2013,04,01,12,49,14.20
2013,04,01,12,50,14.30
2013,04,01,12,51,14.40
2013,04,01,12,52,14.40
2013,04,01,12,53,14.50
2013,04,01,12,54,14.60
2013,04,01,12,55,14.60
2013,04,01,12,56,14.60
2013,04,01,12,57,14.60
2013,04,01,12,58,14.60
2013,04,01,12,59,14.60
2013,04,01,13,00,14.70
2013,04,01,13,01,14.70
2013,04,01,13,02,14.70
2013,04,01,13,03,14.60
2013,04,01,13,04,14.70
2013,04,01,13,05,14.70
2013,04,01,13,06,14.80
2013,04,01,13,07,14.80
2013,04,01,13,08,14.90
2013,04,01,13,09,14.90
2013,04,01,13,10,15.10
2013,04,01,13,11,15.20
2013,04,01,13,12,15.30
2013,04,01,13,13,15.40
2013,04,01,13,14,15.60
2013,04,01,13,15,15.70
2013,04,01,13,16,15.80
2013,04,01,13,17,15.90
2013,04,01,13,18,16.00
2013,04,01,13,19,16.10
2013,04,01,13,20,16.20
2013,04,01,13,21,16.20
2013,04,01,13,22,16.30
2013,04,01,13,23,16.30
2013,04,01,13,24,16.40
2013,04,01,13,25,16.20
2013,04,01,13,26,15.90
2013,04,01,13,27,15.80
2013,04,01,13,28,15.60
2013,04,01,13,29,15.40
2013,04,01,13,30,15.30
2013,04,01,13,31,15.30
2013,04,01,13,32,15.30
2013,04,01,13,33,15.30
2013,04,01,13,34,15.30
2013,04,01,13,35,15.30
2013,04,01,13,36,15.30
2013,04,01,13,37,15.30
2013,04,01,13,38,15.40
2013,04,01,13,39,15.60
2013,04,01,13,40,15.70
2013,04,01,13,41,15.80
2013,04,01,13,42,15.80
2013,04,01,13,43,15.80
2013,04,01,13,44,15.80
2013,04,01,13,45,15.90
2013,04,01,13,46,15.90
2013,04,01,13,47,15.90
2013,04,01,13,48,15.90
2013,04,01,13,49,15.80
2013,04,01,13,50,15.70
2013,04,01,13,51,15.60
2013,04,01,13,52,15.50
2013,04,01,13,53,15.40
2013,04,01,13,54,15.40
2013,04,01,13,55,15.50
2013,04,01,13,56,15.60
2013,04,01,13,57,15.70
2013,04,01,13,58,15.80
2013,04,01,13,59,15.90
2013,04,01,14,00,15.90
2013,04,01,14,01,16.00
2013,04,01,14,02,15.90
2013,04,01,14,03,15.90
2013,04,01,14,04,15.90
2013,04,01,14,05,16.10
2013,04,01,14,06,16.20
2013,04,01,14,07,16.10
2013,04,01,14,08,16.10
2013,04,01,14,09,16.10
2013,04,01,14,10,16.10
2013,04,01,14,11,16.10
2013,04,01,14,12,16.20
2013,04,01,14,13,16.20
2013,04,01,14,14,16.20
2013,04,01,14,15,16.20
2013,04,01,14,16,16.20
2013,04,01,14,17,16.30
2013,04,01,14,18,16.30
2013,04,01,14,19,16.40
2013,04,01,14,20,16.40
2013,04,01,14,21,16.40
2013,04,01,14,22,16.50
2013,04,01,14,23,16.50
2013,04,01,14,24,16.50
2013,04,01,14,25,16.50
2013,04,01,14,26,16.60
2013,04,01,14,27,16.60
2013,04,01,14,28,16.50
2013,04,01,14,29,16.40
2013,04,01,14,30,16.40
2013,04,01,14,31,16.40
2013,04,01,14,32,16.50
2013,04,01,14,33,16.60
2013,04,01,14,34,16.70
2013,04,01,14,35,16.70
2013,04,01,14,36,16.80
2013,04,01,14,37,16.70
2013,04,01,14,38,16.70
2013,04,01,14,39,16.70
2013,04,01,14,40,16.60
2013,04,01,14,41,16.70
2013,04,01,14,42,16.70
2013,04,01,14,43,16.80
2013,04,01,14,44,16.70
2013,04,01,14,45,16.70
2013,04,01,14,46,16.70
2013,04,01,14,47,16.80
2013,04,01,14,48,16.80
2013,04,01,14,49,16.90
2013,04,01,14,50,16.90
2013,04,01,14,51,17.10
2013,04,01,14,52,17.10
2013,04,01,14,53,17.10
2013,04,01,14,54,17.10
2013,04,01,14,55,17.20
2013,04,01,14,56,17.20
2013,04,01,14,57,17.20
2013,04,01,14,58,17.20
2013,04,01,14,59,17.30
2013,04,01,15,00,17.30
2013,04,01,15,01,17.20
2013,04,01,15,03,17.10
2013,04,01,15,04,16.90
2013,04,01,15,05,17.00
2013,04,01,15,06,17.00
2013,04,01,15,07,17.10
2013,04,01,15,08,17.10
2013,04,01,15,09,16.90
2013,04,01,15,10,16.80
2013,04,01,15,11,16.80
2013,04,01,15,12,16.90
2013,04,01,15,13,16.90
2013,04,01,15,14,16.90
2013,04,01,15,15,17.00
2013,04,01,15,16,17.00
2013,04,01,15,17,17.00
2013,04,01,15,18,16.90
2013,04,01,15,19,16.90
2013,04,01,15,20,16.90
2013,04,01,15,21,16.90
2013,04,01,15,22,16.80
2013,04,01,15,23,16.80
2013,04,01,15,24,16.80
2013,04,01,15,25,16.80
2013,04,01,15,26,16.80
2013,04,01,15,27,16.80
2013,04,01,15,28,16.90
2013,04,01,15,29,16.90
2013,04,01,15,30,16.90
2013,04,01,15,31,16.80
2013,04,01,15,32,16.80
2013,04,01,15,33,16.80
2013,04,01,15,34,16.80
2013,04,01,15,35,16.90
2013,04,01,15,36,16.90
2013,04,01,15,37,16.90
2013,04,01,15,38,17.00
2013,04,01,15,39,17.00
2013,04,01,15,40,16.90
2013,04,01,15,41,16.90
2013,04,01,15,42,16.80
2013,04,01,15,43,16.80
2013,04,01,15,44,16.80
2013,04,01,15,45,16.70
2013,04,01,15,46,16.70
2013,04,01,15,47,16.70
2013,04,01,15,48,16.70
2013,04,01,15,49,16.70
2013,04,01,15,50,16.70
2013,04,01,15,51,16.80
2013,04,01,15,52,16.80
2013,04,01,15,53,16.80
2013,04,01,15,54,16.80
2013,04,01,15,55,16.70
2013,04,01,15,56,16.70
2013,04,01,15,57,16.80
2013,04,01,15,58,16.80
2013,04,01,15,59,16.80
2013,04,01,16,00,16.80
2013,04,01,16,01,16.80
2013,04,01,16,02,16.80
2013,04,01,16,03,16.90
2013,04,01,16,04,16.80
2013,04,01,16,05,16.80
2013,04,01,16,06,16.70
2013,04,01,16,07,16.70
2013,04,01,16,08,16.80
2013,04,01,16,09,16.70
2013,04,01,16,10,16.70
2013,04,01,16,11,16.70
2013,04,01,16,12,16.80
2013,04,01,16,13,16.80
2013,04,01,16,14,16.80
2013,04,01,16,15,16.80
2013,04,01,16,16,16.80
2013,04,01,16,17,16.70
2013,04,01,16,18,16.70
2013,04,01,16,19,16.60
2013,04,01,16,20,16.60
2013,04,01,16,21,16.70
2013,04,01,16,22,16.70
2013,04,01,16,23,16.70
2013,04,01,16,24,16.70
2013,04,01,16,25,16.70
2013,04,01,16,26,16.70
2013,04,01,16,27,16.60
2013,04,01,16,28,16.60
2013,04,01,16,29,16.60
2013,04,01,16,30,16.50
2013,04,01,16,31,16.50
2013,04,01,16,32,16.50
2013,04,01,16,33,16.40
2013,04,01,16,34,16.40
2013,04,01,16,35,16.40
2013,04,01,16,36,16.40
2013,04,01,16,37,16.40
2013,04,01,16,38,16.40
2013,04,01,16,39,16.40
2013,04,01,16,40,16.40
2013,04,01,16,41,16.40
2013,04,01,16,42,16.40
2013,04,01,16,43,16.50
2013,04,01,16,44,16.40
2013,04,01,16,45,16.40
2013,04,01,16,46,16.30
2013,04,01,16,47,16.30
2013,04,01,16,48,16.20
2013,04,01,16,49,16.10
2013,04,01,16,50,16.10
2013,04,01,16,51,16.00
2013,04,01,16,52,15.90
2013,04,01,16,53,15.70
2013,04,01,16,54,15.60
2013,04,01,16,55,15.60
2013,04,01,16,56,15.60
2013,04,01,16,57,15.50
2013,04,01,16,58,15.50
2013,04,01,16,59,15.60
2013,04,01,17,00,15.60
2013,04,01,17,01,15.50
2013,04,01,17,02,15.50
2013,04,01,17,03,15.50
2013,04,01,17,04,15.40
2013,04,01,17,05,15.40
2013,04,01,17,06,15.40
2013,04,01,17,07,15.30
2013,04,01,17,08,15.30
2013,04,01,17,09,15.30
2013,04,01,17,10,15.30
2013,04,01,17,11,15.30
2013,04,01,17,12,15.30
2013,04,01,17,13,15.30
2013,04,01,17,14,15.30
2013,04,01,17,15,15.30
2013,04,01,17,16,15.30
2013,04,01,17,17,15.30
2013,04,01,17,18,15.30
2013,04,01,17,19,15.30
2013,04,01,17,20,15.30
2013,04,01,17,21,15.30
2013,04,01,17,22,15.30
2013,04,01,17,23,15.30
2013,04,01,17,24,15.30
2013,04,01,17,25,15.30
2013,04,01,17,26,15.30
2013,04,01,17,27,15.20
2013,04,01,17,28,15.20
2013,04,01,17,29,15.20
2013,04,01,17,30,15.20
2013,04,01,17,31,15.10
2013,04,01,17,32,15.10
2013,04,01,17,33,14.90
2013,04,01,17,34,14.90
2013,04,01,17,35,14.80
2013,04,01,17,36,14.80
2013,04,01,17,37,14.80
2013,04,01,17,38,14.70
2013,04,01,17,39,14.60
2013,04,01,17,40,14.60
2013,04,01,17,41,14.50
2013,04,01,17,42,14.40
2013,04,01,17,43,14.30
2013,04,01,17,44,14.30
2013,04,01,17,45,14.10
2013,04,01,17,46,13.90
2013,04,01,17,47,13.90